Weather History for North Adams, MA

Change the Weather History Date:

Sunday, August 11, 2013

  Actual Average Record
Temperature  
Mean Temperature 62 °F -  
Max Temperature 75 °F 78 °F 89 °F (2002)
Min Temperature 48 °F 57 °F 48 °F (2006)
Degree Days  
Heating Degree Days 4    
Growing Degree Days 12 (Base 50)    
Moisture  
Dew Point 50 °F    
Average Humidity 70    
Maximum Humidity 97    
Minimum Humidity 38    
Precipitation  
Precipitation 0.00 in - - ()
Sea Level Pressure  
Sea Level Pressure 30.08 in    
Wind  
Wind Speed 1 mph (NE)    
Max Wind Speed 7 mph    
Max Gust Speed -    
Visibility 10 miles    
Events      
Averages and records for this station are not official NWS values.
T = Trace of Precipitation, MM = Missing Value Source: NWS Daily Summary

Daily Weather History Graph

Daily Weather History Graph

Search for Another Location

Airport:

Trip Planner

Search our weather history database for the weather conditions in past years. The results will help you decide how hot, cold, wet, or windy it might be!

Date:

Astronomy

Aug. 11, 2013 Rise Set
Actual Time 5:55 AM EDT 7:59 PM EDT
Civil Twilight 5:24 AM EDT 8:30 PM EDT
Nautical Twilight 4:46 AM EDT 9:08 PM EDT
Astronomical Twilight 4:04 AM EDT 9:49 PM EDT
Moon 10:48 AM EDT (8/11) 10:05 PM EDT (8/11)
Length of Visible Light 15h 06m
Length of Day
14h 04m
Waxing Crescent, 22% of the Moon is Illuminated
Aug 11
Waxing Crescent
Aug 14
First Quarter
Aug 20
Full
Aug 28
Last Quarter
Sep 5
New

Hourly Weather History & Observations

Time (EDT) Temp. Dew Point Humidity Pressure Visibility Wind Dir Wind Speed Gust Speed Precip Events Conditions
12:52 AM 52.0 °F 48.9 °F 89% 30.08 in 10.0 mi Calm Calm - N/A   Clear
1:52 AM 50.0 °F 48.0 °F 93% 30.09 in 10.0 mi Calm Calm - N/A   Clear
2:52 AM 50.0 °F 48.0 °F 93% 30.10 in 10.0 mi Calm Calm - N/A   Clear
3:52 AM 48.9 °F 46.0 °F 90% 30.10 in 10.0 mi Calm Calm - N/A   Clear
4:52 AM 48.0 °F 46.9 °F 96% 30.11 in 10.0 mi Calm Calm - N/A   Clear
5:52 AM 48.0 °F 45.0 °F 89% 30.12 in 10.0 mi Calm Calm - N/A   Clear
6:52 AM 48.9 °F 48.0 °F 97% 30.13 in 10.0 mi Calm Calm - N/A   Clear
7:52 AM 55.0 °F 48.9 °F 80% 30.13 in 10.0 mi East 5.8 mph - N/A   Clear
8:52 AM 60.1 °F 50.0 °F 69% 30.13 in 10.0 mi East 3.5 mph - N/A   Clear
9:52 AM 64.9 °F 50.0 °F 58% 30.13 in 10.0 mi Calm Calm - N/A   Clear
10:52 AM 68.0 °F 50.0 °F 52% 30.12 in 10.0 mi Calm Calm - N/A   Clear
11:52 AM 71.1 °F 48.0 °F 44% 30.11 in 10.0 mi Variable 4.6 mph - N/A   Clear
12:52 PM 72.0 °F 48.0 °F 43% 30.08 in 10.0 mi Variable 3.5 mph - N/A   Partly Cloudy
1:52 PM 73.0 °F 48.0 °F 41% 30.08 in 10.0 mi NNE 6.9 mph - N/A   Mostly Cloudy
2:52 PM 73.9 °F 48.9 °F 41% 30.07 in 10.0 mi Variable 5.8 mph - N/A   Partly Cloudy
3:52 PM 75.0 °F 50.0 °F 41% 30.05 in 10.0 mi NW 5.8 mph - N/A   Mostly Cloudy
4:52 PM 75.0 °F 48.0 °F 38% 30.04 in 10.0 mi Variable 6.9 mph - N/A   Clear
5:52 PM 73.9 °F 48.9 °F 41% 30.04 in 10.0 mi Variable 3.5 mph - N/A   Overcast
6:52 PM 72.0 °F 53.1 °F 51% 30.03 in 10.0 mi Calm Calm - N/A   Scattered Clouds
7:52 PM 64.9 °F 55.9 °F 73% 30.03 in 10.0 mi Calm Calm - N/A   Clear
8:52 PM 60.1 °F 57.0 °F 90% 30.06 in 10.0 mi Calm Calm - N/A   Clear
9:52 PM 59.0 °F 55.9 °F 90% 30.07 in 10.0 mi Calm Calm - N/A   Mostly Cloudy
10:52 PM 57.0 °F 54.0 °F 89% 30.06 in 10.0 mi Calm Calm - N/A   Clear
11:52 PM 55.9 °F 54.0 °F 93% 30.07 in 10.0 mi Calm Calm - N/A   Clear